Year,Month,Day,Hour,Minute,Value (Times are PST for temperature in C)
2009,03,22,00,00,1.40
2009,03,22,00,01,1.40
2009,03,22,00,02,1.40
2009,03,22,00,03,1.40
2009,03,22,00,04,1.30
2009,03,22,00,05,1.30
2009,03,22,00,06,1.30
2009,03,22,00,07,1.30
2009,03,22,00,08,1.30
2009,03,22,00,09,1.30
2009,03,22,00,10,1.30
2009,03,22,00,11,1.30
2009,03,22,00,12,1.30
2009,03,22,00,13,1.30
2009,03,22,00,14,1.30
2009,03,22,00,15,1.20
2009,03,22,00,16,1.20
2009,03,22,00,17,1.20
2009,03,22,00,18,1.20
2009,03,22,00,19,1.20
2009,03,22,00,20,1.20
2009,03,22,00,21,1.20
2009,03,22,00,22,1.20
2009,03,22,00,23,1.20
2009,03,22,00,24,1.10
2009,03,22,00,25,1.10
2009,03,22,00,26,1.10
2009,03,22,00,27,1.10
2009,03,22,00,28,1.10
2009,03,22,00,29,1.00
2009,03,22,00,30,1.00
2009,03,22,00,31,1.00
2009,03,22,00,32,1.00
2009,03,22,00,33,1.00
2009,03,22,00,34,1.00
2009,03,22,00,35,1.00
2009,03,22,00,36,1.00
2009,03,22,00,37,1.00
2009,03,22,00,38,1.00
2009,03,22,00,39,1.00
2009,03,22,00,40,1.00
2009,03,22,00,41,1.00
2009,03,22,00,42,0.90
2009,03,22,00,43,0.90
2009,03,22,00,44,0.90
2009,03,22,00,45,0.90
2009,03,22,00,46,0.90
2009,03,22,00,47,0.90
2009,03,22,00,48,0.90
2009,03,22,00,49,0.90
2009,03,22,00,50,0.90
2009,03,22,00,51,0.90
2009,03,22,00,52,0.90
2009,03,22,00,53,0.90
2009,03,22,00,54,0.90
2009,03,22,00,55,0.90
2009,03,22,00,56,0.90
2009,03,22,00,57,0.90
2009,03,22,00,58,0.90
2009,03,22,00,59,0.90
2009,03,22,01,00,0.90
2009,03,22,01,01,0.90
2009,03,22,01,02,0.90
2009,03,22,01,03,0.90
2009,03,22,01,04,0.90
2009,03,22,01,05,0.90
2009,03,22,01,06,0.90
2009,03,22,01,07,0.90
2009,03,22,01,08,0.90
2009,03,22,01,09,0.90
2009,03,22,01,10,0.90
2009,03,22,01,11,0.80
2009,03,22,01,12,0.80
2009,03,22,01,13,0.80
2009,03,22,01,14,0.80
2009,03,22,01,15,0.80
2009,03,22,01,16,0.80
2009,03,22,01,17,0.80
2009,03,22,01,18,0.80
2009,03,22,01,19,0.80
2009,03,22,01,20,0.80
2009,03,22,01,21,0.80
2009,03,22,01,22,0.80
2009,03,22,01,23,0.80
2009,03,22,01,24,0.80
2009,03,22,01,25,0.80
2009,03,22,01,26,0.80
2009,03,22,01,27,0.80
2009,03,22,01,28,0.80
2009,03,22,01,29,0.90
2009,03,22,01,30,0.90
2009,03,22,01,31,0.90
2009,03,22,01,32,0.90
2009,03,22,01,33,0.90
2009,03,22,01,34,0.90
2009,03,22,01,35,0.90
2009,03,22,01,36,0.90
2009,03,22,01,37,0.90
2009,03,22,01,38,0.90
2009,03,22,01,39,1.00
2009,03,22,01,40,1.00
2009,03,22,01,41,1.00
2009,03,22,01,42,1.00
2009,03,22,01,43,1.10
2009,03,22,01,44,1.10
2009,03,22,01,45,1.10
2009,03,22,01,46,1.10
2009,03,22,01,47,1.10
2009,03,22,01,48,1.10
2009,03,22,01,49,1.10
2009,03,22,01,50,1.10
2009,03,22,01,51,1.10
2009,03,22,01,52,1.10
2009,03,22,01,53,1.10
2009,03,22,01,54,1.10
2009,03,22,01,55,1.10
2009,03,22,01,56,1.10
2009,03,22,01,57,1.10
2009,03,22,01,58,1.10
2009,03,22,01,59,1.20
2009,03,22,02,00,1.30
2009,03,22,02,01,1.30
2009,03,22,02,02,1.30
2009,03,22,02,03,1.40
2009,03,22,02,04,1.50
2009,03,22,02,05,1.50
2009,03,22,02,06,1.50
2009,03,22,02,07,1.50
2009,03,22,02,08,1.60
2009,03,22,02,09,1.60
2009,03,22,02,10,1.60
2009,03,22,02,11,1.60
2009,03,22,02,12,1.60
2009,03,22,02,13,1.60
2009,03,22,02,14,1.60
2009,03,22,02,15,1.60
2009,03,22,02,16,1.60
2009,03,22,02,17,1.70
2009,03,22,02,18,1.70
2009,03,22,02,19,1.70
2009,03,22,02,20,1.70
2009,03,22,02,21,1.70
2009,03,22,02,22,1.70
2009,03,22,02,23,1.70
2009,03,22,02,24,1.70
2009,03,22,02,25,1.70
2009,03,22,02,26,1.70
2009,03,22,02,27,1.70
2009,03,22,02,28,1.70
2009,03,22,02,29,1.70
2009,03,22,02,30,1.70
2009,03,22,02,31,1.70
2009,03,22,02,32,1.60
2009,03,22,02,33,1.60
2009,03,22,02,34,1.60
2009,03,22,02,35,1.60
2009,03,22,02,36,1.60
2009,03,22,02,37,1.60
2009,03,22,02,38,1.60
2009,03,22,02,39,1.60
2009,03,22,02,40,1.60
2009,03,22,02,41,1.60
2009,03,22,02,42,1.60
2009,03,22,02,43,1.60
2009,03,22,02,44,1.60
2009,03,22,02,45,1.70
2009,03,22,02,46,1.70
2009,03,22,02,47,1.70
2009,03,22,02,48,1.70
2009,03,22,02,49,1.70
2009,03,22,02,50,1.70
2009,03,22,02,51,1.70
2009,03,22,02,52,1.70
2009,03,22,02,53,1.70
2009,03,22,02,54,1.70
2009,03,22,02,55,1.70
2009,03,22,02,56,1.70
2009,03,22,02,57,1.70
2009,03,22,02,58,1.70
2009,03,22,02,59,1.70
2009,03,22,03,00,1.70
2009,03,22,03,01,1.70
2009,03,22,03,02,1.70
2009,03,22,03,03,1.70
2009,03,22,03,04,1.70
2009,03,22,03,05,1.80
2009,03,22,03,06,1.80
2009,03,22,03,07,1.80
2009,03,22,03,08,1.80
2009,03,22,03,09,1.80
2009,03,22,03,10,1.80
2009,03,22,03,11,1.80
2009,03,22,03,12,1.80
2009,03,22,03,13,1.80
2009,03,22,03,14,1.80
2009,03,22,03,15,1.80
2009,03,22,03,16,1.80
2009,03,22,03,17,1.80
2009,03,22,03,18,1.80
2009,03,22,03,19,1.80
2009,03,22,03,20,1.80
2009,03,22,03,21,1.80
2009,03,22,03,22,1.80
2009,03,22,03,23,1.80
2009,03,22,03,24,1.80
2009,03,22,03,25,1.80
2009,03,22,03,26,1.80
2009,03,22,03,27,1.90
2009,03,22,03,28,1.90
2009,03,22,03,29,1.90
2009,03,22,03,30,1.90
2009,03,22,03,31,1.90
2009,03,22,03,32,1.90
2009,03,22,03,33,2.00
2009,03,22,03,34,2.00
2009,03,22,03,35,2.00
2009,03,22,03,36,2.00
2009,03,22,03,37,2.00
2009,03,22,03,38,2.00
2009,03,22,03,39,2.00
2009,03,22,03,40,2.00
2009,03,22,03,41,2.00
2009,03,22,03,42,2.00
2009,03,22,03,43,2.00
2009,03,22,03,44,2.00
2009,03,22,03,45,2.00
2009,03,22,03,46,2.10
2009,03,22,03,47,2.10
2009,03,22,03,48,2.10
2009,03,22,03,49,2.10
2009,03,22,03,50,2.10
2009,03,22,03,51,2.10
2009,03,22,03,52,2.20
2009,03,22,03,53,2.20
2009,03,22,03,54,2.20
2009,03,22,03,55,2.20
2009,03,22,03,56,2.20
2009,03,22,03,57,2.20
2009,03,22,03,58,2.20
2009,03,22,03,59,2.20
2009,03,22,04,00,2.20
2009,03,22,04,01,2.20
2009,03,22,04,02,2.20
2009,03,22,04,04,2.30
2009,03,22,04,05,2.30
2009,03,22,04,06,2.30
2009,03,22,04,07,2.40
2009,03,22,04,08,2.40
2009,03,22,04,09,2.40
2009,03,22,04,10,2.40
2009,03,22,04,11,2.40
2009,03,22,04,12,2.40
2009,03,22,04,13,2.50
2009,03,22,04,14,2.50
2009,03,22,04,15,2.50
2009,03,22,04,16,2.50
2009,03,22,04,17,2.50
2009,03,22,04,18,2.50
2009,03,22,04,19,2.50
2009,03,22,04,20,2.50
2009,03,22,04,21,2.50
2009,03,22,04,22,2.50
2009,03,22,04,23,2.50
2009,03,22,04,24,2.60
2009,03,22,04,25,2.60
2009,03,22,04,26,2.60
2009,03,22,04,27,2.60
2009,03,22,04,28,2.70
2009,03,22,04,29,2.70
2009,03,22,04,30,2.70
2009,03,22,04,31,2.70
2009,03,22,04,32,2.70
2009,03,22,04,33,2.70
2009,03,22,04,34,2.70
2009,03,22,04,35,2.70
2009,03,22,04,36,2.70
2009,03,22,04,37,2.70
2009,03,22,04,38,2.70
2009,03,22,04,39,2.70
2009,03,22,04,40,2.70
2009,03,22,04,41,2.70
2009,03,22,04,42,2.70
2009,03,22,04,43,2.70
2009,03,22,04,44,2.70
2009,03,22,04,45,2.70
2009,03,22,04,46,2.70
2009,03,22,04,47,2.70
2009,03,22,04,48,2.70
2009,03,22,04,49,2.70
2009,03,22,04,50,2.70
2009,03,22,04,51,2.70
2009,03,22,04,52,2.70
2009,03,22,04,53,2.70
2009,03,22,04,54,2.60
2009,03,22,04,55,2.60
2009,03,22,04,56,2.60
2009,03,22,04,57,2.60
2009,03,22,04,58,2.60
2009,03,22,04,59,2.60
2009,03,22,05,00,2.60
2009,03,22,05,01,2.60
2009,03,22,05,02,2.60
2009,03,22,05,03,2.60
2009,03,22,05,04,2.60
2009,03,22,05,05,2.60
2009,03,22,05,06,2.60
2009,03,22,05,07,2.50
2009,03,22,05,08,2.50
2009,03,22,05,09,2.50
2009,03,22,05,10,2.50
2009,03,22,05,11,2.50
2009,03,22,05,12,2.50
2009,03,22,05,13,2.50
2009,03,22,05,14,2.40
2009,03,22,05,15,2.40
2009,03,22,05,16,2.40
2009,03,22,05,17,2.40
2009,03,22,05,18,2.30
2009,03,22,05,19,2.30
2009,03,22,05,20,2.30
2009,03,22,05,21,2.30
2009,03,22,05,22,2.30
2009,03,22,05,23,2.30
2009,03,22,05,24,2.30
2009,03,22,05,25,2.40
2009,03,22,05,26,2.40
2009,03,22,05,27,2.40
2009,03,22,05,28,2.40
2009,03,22,05,29,2.30
2009,03,22,05,30,2.30
2009,03,22,05,31,2.30
2009,03,22,05,32,2.30
2009,03,22,05,33,2.30
2009,03,22,05,34,2.30
2009,03,22,05,35,2.30
2009,03,22,05,36,2.30
2009,03,22,05,37,2.30
2009,03,22,05,38,2.30
2009,03,22,05,39,2.30
2009,03,22,05,40,2.30
2009,03,22,05,41,2.30
2009,03,22,05,42,2.40
2009,03,22,05,43,2.40
2009,03,22,05,44,2.40
2009,03,22,05,45,2.40
2009,03,22,05,46,2.50
2009,03,22,05,47,2.50
2009,03,22,05,48,2.50
2009,03,22,05,49,2.50
2009,03,22,05,50,2.50
2009,03,22,05,51,2.50
2009,03,22,05,52,2.50
2009,03,22,05,53,2.50
2009,03,22,05,54,2.50
2009,03,22,05,55,2.50
2009,03,22,05,56,2.50
2009,03,22,05,57,2.50
2009,03,22,05,58,2.50
2009,03,22,05,59,2.50
2009,03,22,06,00,2.50
2009,03,22,06,01,2.50
2009,03,22,06,02,2.50
2009,03,22,06,03,2.50
2009,03,22,06,04,2.50
2009,03,22,06,05,2.50
2009,03,22,06,06,2.50
2009,03,22,06,07,2.50
2009,03,22,06,08,2.50
2009,03,22,06,09,2.50
2009,03,22,06,10,2.50
2009,03,22,06,11,2.50
2009,03,22,06,12,2.40
2009,03,22,06,13,2.40
2009,03,22,06,14,2.40
2009,03,22,06,15,2.40
2009,03,22,06,16,2.40
2009,03,22,06,17,2.40
2009,03,22,06,18,2.40
2009,03,22,06,19,2.40
2009,03,22,06,20,2.40
2009,03,22,06,21,2.40
2009,03,22,06,22,2.30
2009,03,22,06,23,2.30
2009,03,22,06,24,2.30
2009,03,22,06,25,2.30
2009,03,22,06,26,2.30
2009,03,22,06,27,2.30
2009,03,22,06,28,2.20
2009,03,22,06,29,2.20
2009,03,22,06,30,2.20
2009,03,22,06,31,2.20
2009,03,22,06,32,2.20
2009,03,22,06,33,2.20
2009,03,22,06,34,2.20
2009,03,22,06,35,2.20
2009,03,22,06,36,2.20
2009,03,22,06,37,2.20
2009,03,22,06,38,2.20
2009,03,22,06,39,2.20
2009,03,22,06,40,2.20
2009,03,22,06,41,2.20
2009,03,22,06,42,2.20
2009,03,22,06,43,2.20
2009,03,22,06,44,2.20
2009,03,22,06,45,2.20
2009,03,22,06,46,2.20
2009,03,22,06,47,2.20
2009,03,22,06,48,2.20
2009,03,22,06,49,2.20
2009,03,22,06,50,2.20
2009,03,22,06,51,2.20
2009,03,22,06,52,2.20
2009,03,22,06,53,2.20
2009,03,22,06,54,2.30
2009,03,22,06,55,2.20
2009,03,22,06,56,2.20
2009,03,22,06,57,2.20
2009,03,22,06,58,2.20
2009,03,22,06,59,2.20
2009,03,22,07,00,2.20
2009,03,22,07,01,2.20
2009,03,22,07,02,2.20
2009,03,22,07,03,2.20
2009,03,22,08,01,3.10
2009,03,22,08,03,3.10
2009,03,22,08,04,3.10
2009,03,22,08,05,3.10
2009,03,22,08,06,3.10
2009,03,22,08,07,3.10
2009,03,22,08,08,3.10
2009,03,22,08,09,3.20
2009,03,22,08,10,3.20
2009,03,22,08,11,3.20
2009,03,22,08,12,3.20
2009,03,22,08,13,3.20
2009,03,22,08,14,3.20
2009,03,22,08,15,3.20
2009,03,22,08,16,3.20
2009,03,22,08,17,3.20
2009,03,22,08,18,3.20
2009,03,22,08,19,3.20
2009,03,22,08,20,3.20
2009,03,22,08,21,3.20
2009,03,22,08,22,3.20
2009,03,22,08,23,3.30
2009,03,22,08,24,3.30
2009,03,22,08,25,3.30
2009,03,22,08,26,3.30
2009,03,22,08,27,3.30
2009,03,22,08,28,3.30
2009,03,22,08,29,3.30
2009,03,22,08,30,3.30
2009,03,22,08,31,3.30
2009,03,22,08,32,3.40
2009,03,22,08,33,3.40
2009,03,22,08,34,3.40
2009,03,22,08,35,3.40
2009,03,22,08,36,3.50
2009,03,22,08,37,3.50
2009,03,22,08,38,3.60
2009,03,22,08,39,3.60
2009,03,22,08,40,3.60
2009,03,22,08,41,3.70
2009,03,22,08,42,3.70
2009,03,22,08,43,3.70
2009,03,22,08,44,3.80
2009,03,22,08,45,3.80
2009,03,22,08,46,3.80
2009,03,22,08,47,3.80
2009,03,22,08,48,3.90
2009,03,22,08,49,3.90
2009,03,22,08,50,3.90
2009,03,22,08,51,4.00
2009,03,22,08,52,4.00
2009,03,22,08,53,4.10
2009,03,22,08,54,4.10
2009,03,22,08,55,4.20
2009,03,22,08,56,4.20
2009,03,22,08,57,4.20
2009,03,22,08,58,4.20
2009,03,22,08,59,4.20
2009,03,22,09,00,4.30
2009,03,22,09,01,4.30
2009,03,22,09,02,4.40
2009,03,22,09,03,4.40
2009,03,22,09,04,4.40
2009,03,22,09,05,4.50
2009,03,22,09,06,4.50
2009,03,22,09,07,4.50
2009,03,22,09,08,4.60
2009,03,22,09,09,4.60
2009,03,22,09,10,4.60
2009,03,22,09,11,4.60
2009,03,22,09,12,4.60
2009,03,22,09,13,4.70
2009,03,22,09,14,4.70
2009,03,22,09,15,4.70
2009,03,22,09,16,4.80
2009,03,22,09,17,4.80
2009,03,22,09,18,4.80
2009,03,22,09,19,4.90
2009,03,22,09,20,4.90
2009,03,22,09,21,4.90
2009,03,22,09,22,5.00
2009,03,22,09,23,5.10
2009,03,22,09,24,5.10
2009,03,22,09,25,5.10
2009,03,22,09,26,5.10
2009,03,22,09,27,5.20
2009,03,22,09,28,5.20
2009,03,22,09,29,5.30
2009,03,22,09,30,5.30
2009,03,22,09,31,5.30
2009,03,22,09,32,5.30
2009,03,22,09,33,5.40
2009,03,22,09,34,5.50
2009,03,22,09,35,5.50
2009,03,22,09,36,5.50
2009,03,22,09,37,5.60
2009,03,22,09,38,5.60
2009,03,22,09,39,5.70
2009,03,22,09,40,5.70
2009,03,22,09,41,5.70
2009,03,22,09,42,5.70
2009,03,22,09,43,5.70
2009,03,22,09,44,5.80
2009,03,22,09,45,5.80
2009,03,22,09,46,5.80
2009,03,22,09,47,5.90
2009,03,22,09,48,5.90
2009,03,22,09,49,6.00
2009,03,22,09,50,6.00
2009,03,22,09,51,6.00
2009,03,22,09,52,6.10
2009,03,22,09,53,6.10
2009,03,22,09,54,6.10
2009,03,22,09,55,6.10
2009,03,22,09,56,6.10
2009,03,22,09,57,6.20
2009,03,22,09,58,6.20
2009,03,22,09,59,6.20
2009,03,22,10,00,6.20
2009,03,22,10,01,6.30
2009,03,22,10,02,6.40
2009,03,22,10,03,6.40
2009,03,22,10,04,6.50
2009,03,22,10,05,6.60
2009,03,22,10,06,6.60
2009,03,22,10,07,6.60
2009,03,22,10,08,6.60
2009,03,22,10,09,6.60
2009,03,22,10,10,6.60
2009,03,22,10,11,6.60
2009,03,22,10,12,6.60
2009,03,22,10,13,6.60
2009,03,22,10,14,6.60
2009,03,22,10,15,6.60
2009,03,22,10,16,6.60
2009,03,22,10,17,6.70
2009,03,22,10,18,6.70
2009,03,22,10,19,6.80
2009,03,22,10,20,6.80
2009,03,22,10,21,6.90
2009,03,22,10,22,6.90
2009,03,22,10,23,7.00
2009,03,22,10,24,7.00
2009,03,22,10,25,7.00
2009,03,22,10,26,7.10
2009,03,22,10,27,7.10
2009,03,22,10,28,7.10
2009,03,22,10,29,7.10
2009,03,22,10,30,7.00
2009,03,22,10,31,7.00
2009,03,22,10,32,7.00
2009,03,22,10,33,7.10
2009,03,22,10,34,7.10
2009,03,22,10,35,7.10
2009,03,22,10,36,7.10
2009,03,22,10,37,7.20
2009,03,22,10,38,7.20
2009,03,22,10,39,7.20
2009,03,22,10,40,7.30
2009,03,22,10,41,7.30
2009,03,22,10,42,7.20
2009,03,22,10,43,7.20
2009,03,22,10,44,7.30
2009,03,22,10,45,7.30
2009,03,22,10,46,7.30
2009,03,22,10,47,7.30
2009,03,22,10,48,7.30
2009,03,22,10,49,7.30
2009,03,22,10,50,7.30
2009,03,22,10,51,7.30
2009,03,22,10,52,7.30
2009,03,22,10,53,7.30
2009,03,22,10,54,7.30
2009,03,22,10,55,7.30
2009,03,22,10,56,7.20
2009,03,22,10,57,7.20
2009,03,22,10,58,7.20
2009,03,22,10,59,7.20
2009,03,22,11,00,7.30
2009,03,22,11,01,7.30
2009,03,22,11,02,7.30
2009,03,22,11,03,7.30
2009,03,22,11,04,7.40
2009,03,22,11,05,7.40
2009,03,22,11,06,7.50
2009,03,22,11,07,7.50
2009,03,22,11,08,7.50
2009,03,22,11,09,7.60
2009,03,22,11,10,7.60
2009,03,22,11,11,7.60
2009,03,22,11,12,7.60
2009,03,22,11,13,7.70
2009,03,22,11,14,7.70
2009,03,22,11,15,7.80
2009,03,22,11,16,7.80
2009,03,22,11,17,7.80
2009,03,22,11,18,7.90
2009,03,22,11,19,7.90
2009,03,22,11,20,7.90
2009,03,22,11,21,7.90
2009,03,22,11,22,7.90
2009,03,22,11,23,7.90
2009,03,22,11,24,7.90
2009,03,22,11,25,7.80
2009,03,22,11,26,7.90
2009,03,22,11,27,7.90
2009,03,22,11,28,7.90
2009,03,22,11,29,7.90
2009,03,22,11,30,8.00
2009,03,22,11,31,8.00
2009,03,22,11,32,7.90
2009,03,22,11,33,7.90
2009,03,22,11,34,7.80
2009,03,22,11,35,7.70
2009,03,22,11,36,7.60
2009,03,22,11,37,7.50
2009,03,22,11,38,7.40
2009,03,22,11,39,7.30
2009,03,22,11,40,7.30
2009,03,22,11,41,7.30
2009,03,22,11,42,7.30
2009,03,22,11,43,7.30
2009,03,22,11,44,7.20
2009,03,22,11,45,7.20
2009,03,22,11,46,7.20
2009,03,22,11,47,7.30
2009,03,22,11,48,7.20
2009,03,22,11,49,7.30
2009,03,22,11,50,7.30
2009,03,22,11,51,7.40
2009,03,22,11,52,7.40
2009,03,22,11,53,7.50
2009,03,22,11,54,7.60
2009,03,22,11,55,7.70
2009,03,22,11,56,7.80
2009,03,22,11,57,7.90
2009,03,22,11,58,8.00
2009,03,22,11,59,8.00
2009,03,22,12,00,8.10
2009,03,22,12,01,8.10
2009,03,22,12,02,8.20
2009,03,22,12,03,8.10
2009,03,22,12,04,8.10
2009,03,22,12,05,8.00
2009,03,22,12,06,8.00
2009,03,22,12,07,7.90
2009,03,22,12,08,7.90
2009,03,22,12,09,7.90
2009,03,22,12,10,7.80
2009,03,22,12,11,7.80
2009,03,22,12,12,7.80
2009,03,22,12,13,7.80
2009,03,22,12,14,7.80
2009,03,22,12,15,7.80
2009,03,22,12,16,7.80
2009,03,22,12,17,7.80
2009,03,22,12,18,7.70
2009,03,22,12,19,7.70
2009,03,22,12,20,7.60
2009,03,22,12,21,7.60
2009,03,22,12,22,7.60
2009,03,22,12,23,7.60
2009,03,22,12,24,7.50
2009,03,22,12,25,7.50
2009,03,22,12,26,7.50
2009,03,22,12,27,7.50
2009,03,22,12,28,7.50
2009,03,22,12,29,7.50
2009,03,22,12,30,7.50
2009,03,22,12,31,7.50
2009,03,22,12,32,7.60
2009,03,22,12,33,7.60
2009,03,22,12,34,7.70
2009,03,22,12,35,7.70
2009,03,22,12,36,7.80
2009,03,22,12,37,7.80
2009,03,22,12,38,7.80
2009,03,22,12,39,7.80
2009,03,22,12,40,7.80
2009,03,22,12,41,7.80
2009,03,22,12,42,7.80
2009,03,22,12,43,7.80
2009,03,22,12,44,7.80
2009,03,22,12,45,7.80
2009,03,22,12,46,7.80
2009,03,22,12,47,7.80
2009,03,22,12,48,7.80
2009,03,22,12,49,7.90
2009,03,22,12,50,8.00
2009,03,22,12,51,8.00
2009,03,22,12,52,8.20
2009,03,22,12,53,8.20
2009,03,22,12,54,8.20
2009,03,22,12,55,8.30
2009,03,22,12,56,8.30
2009,03,22,12,57,8.40
2009,03,22,12,58,8.50
2009,03,22,12,59,8.60
2009,03,22,13,00,8.70
2009,03,22,13,01,8.90
2009,03,22,13,02,9.00
2009,03,22,13,03,9.00
2009,03,22,13,04,9.00
2009,03,22,13,05,9.10
2009,03,22,13,06,9.00
2009,03,22,13,07,9.10
2009,03,22,13,08,9.20
2009,03,22,13,09,9.20
2009,03,22,13,10,9.20
2009,03,22,13,11,9.20
2009,03,22,13,12,9.30
2009,03,22,13,13,9.30
2009,03,22,13,14,9.30
2009,03,22,13,15,9.40
2009,03,22,13,16,9.50
2009,03,22,13,17,9.60
2009,03,22,13,18,9.70
2009,03,22,13,19,9.80
2009,03,22,13,20,9.90
2009,03,22,13,21,9.90
2009,03,22,13,22,9.80
2009,03,22,13,23,9.70
2009,03,22,13,24,9.70
2009,03,22,13,25,9.60
2009,03,22,13,26,9.50
2009,03,22,13,27,9.50
2009,03,22,13,28,9.40
2009,03,22,13,29,9.40
2009,03,22,13,30,9.30
2009,03,22,13,31,9.30
2009,03,22,13,32,9.30
2009,03,22,13,33,9.40
2009,03,22,13,34,9.40
2009,03,22,13,35,9.40
2009,03,22,13,36,9.30
2009,03,22,13,37,9.30
2009,03,22,13,38,9.30
2009,03,22,13,39,9.30
2009,03,22,13,40,9.30
2009,03,22,13,41,9.40
2009,03,22,13,42,9.40
2009,03,22,13,43,9.50
2009,03,22,13,44,9.70
2009,03,22,13,45,9.80
2009,03,22,13,46,9.90
2009,03,22,13,47,9.90
2009,03,22,13,48,9.90
2009,03,22,13,49,9.90
2009,03,22,13,50,9.90
2009,03,22,13,51,9.90
2009,03,22,13,52,9.80
2009,03,22,13,53,9.80
2009,03,22,13,54,9.70
2009,03,22,13,55,9.70
2009,03,22,13,56,9.70
2009,03,22,13,57,9.70
2009,03,22,13,58,9.70
2009,03,22,13,59,9.60
2009,03,22,14,00,9.50
2009,03,22,14,01,9.40
2009,03,22,14,02,9.40
2009,03,22,14,03,9.40
2009,03,22,14,04,9.40
2009,03,22,14,05,9.40
2009,03,22,14,06,9.60
2009,03,22,14,07,9.60
2009,03,22,14,08,9.60
2009,03,22,14,09,9.60
2009,03,22,14,10,9.70
2009,03,22,14,11,9.70
2009,03,22,14,12,9.80
2009,03,22,14,13,9.90
2009,03,22,14,14,9.90
2009,03,22,14,15,9.90
2009,03,22,14,16,10.00
2009,03,22,14,17,10.10
2009,03,22,14,18,10.20
2009,03,22,14,19,10.20
2009,03,22,14,20,10.30
2009,03,22,14,21,10.30
2009,03,22,14,22,10.30
2009,03,22,14,23,10.30
2009,03,22,14,24,10.40
2009,03,22,14,25,10.40
2009,03,22,14,26,10.20
2009,03,22,14,27,10.10
2009,03,22,14,28,10.10
2009,03,22,14,29,10.10
2009,03,22,14,30,10.10
2009,03,22,14,31,10.10
2009,03,22,14,32,10.10
2009,03,22,14,33,10.00
2009,03,22,14,34,9.90
2009,03,22,14,35,9.90
2009,03,22,14,36,9.90
2009,03,22,14,37,9.90
2009,03,22,14,38,10.00
2009,03,22,14,39,10.10
2009,03,22,14,40,10.20
2009,03,22,14,41,10.10
2009,03,22,14,42,10.10
2009,03,22,14,43,10.20
2009,03,22,14,44,10.30
2009,03,22,14,45,10.40
2009,03,22,14,46,10.40
2009,03,22,14,47,10.40
2009,03,22,14,48,10.20
2009,03,22,14,49,10.10
2009,03,22,14,50,10.00
2009,03,22,14,51,9.90
2009,03,22,14,52,9.90
2009,03,22,14,53,9.90
2009,03,22,14,54,9.90
2009,03,22,14,55,9.90
2009,03,22,14,56,9.90
2009,03,22,14,57,9.90
2009,03,22,14,58,9.90
2009,03,22,14,59,10.00
2009,03,22,15,00,10.10
2009,03,22,15,01,10.10
2009,03,22,15,02,10.20
2009,03,22,15,03,10.20
2009,03,22,15,04,10.20
2009,03,22,15,05,10.10
2009,03,22,15,06,10.10
2009,03,22,15,07,10.10
2009,03,22,15,08,10.10
2009,03,22,15,09,10.10
2009,03,22,15,10,10.20
2009,03,22,15,11,10.20
2009,03,22,15,12,10.20
2009,03,22,15,13,10.20
2009,03,22,15,14,10.10
2009,03,22,15,15,10.10
2009,03,22,15,16,10.00
2009,03,22,15,17,9.90
2009,03,22,15,18,10.00
2009,03,22,15,19,10.10
2009,03,22,15,20,10.10
2009,03,22,15,21,10.10
2009,03,22,15,22,10.10
2009,03,22,15,23,10.10
2009,03,22,15,24,9.90
2009,03,22,15,25,9.90
2009,03,22,15,26,9.90
2009,03,22,15,27,9.80
2009,03,22,15,28,9.70
2009,03,22,15,29,9.70
2009,03,22,15,30,9.60
2009,03,22,15,31,9.50
2009,03,22,15,32,9.40
2009,03,22,15,33,9.50
2009,03,22,15,34,9.50
2009,03,22,15,35,9.50
2009,03,22,15,36,9.60
2009,03,22,15,37,9.60
2009,03,22,15,38,9.50
2009,03,22,15,39,9.50
2009,03,22,15,40,9.50
2009,03,22,15,41,9.50
2009,03,22,15,42,9.50
2009,03,22,15,43,9.50
2009,03,22,15,44,9.40
2009,03,22,15,45,9.30
2009,03,22,15,46,9.30
2009,03,22,15,47,9.20
2009,03,22,15,48,9.20
2009,03,22,15,49,9.00
2009,03,22,15,50,9.00
2009,03,22,15,51,9.00
2009,03,22,15,52,8.90
2009,03,22,15,53,8.90
2009,03,22,15,54,8.90
2009,03,22,15,55,8.80
2009,03,22,15,56,8.80
2009,03,22,15,57,8.70
2009,03,22,15,58,8.60
2009,03,22,15,59,8.50
2009,03,22,16,00,8.50
2009,03,22,16,01,8.40
2009,03,22,16,02,8.30
2009,03,22,16,03,8.30
2009,03,22,16,04,8.20
2009,03,22,16,05,8.20
2009,03,22,16,06,8.20
2009,03,22,16,07,8.30
2009,03,22,16,08,8.30
2009,03,22,16,09,8.40
2009,03,22,16,10,8.40
2009,03,22,16,11,8.40
2009,03,22,16,12,8.40
2009,03,22,16,13,8.40
2009,03,22,16,14,8.30
2009,03,22,16,15,8.20
2009,03,22,16,16,8.20
2009,03,22,16,17,8.20
2009,03,22,16,18,8.20
2009,03,22,16,19,8.20
2009,03,22,16,20,8.20
2009,03,22,16,21,8.20
2009,03,22,16,22,8.20
2009,03,22,16,23,8.20
2009,03,22,16,24,8.20
2009,03,22,16,25,8.30
2009,03,22,16,26,8.40
2009,03,22,16,27,8.40
2009,03,22,16,28,8.40
2009,03,22,16,29,8.40
2009,03,22,16,30,8.40
2009,03,22,16,31,8.30
2009,03,22,16,32,8.30
2009,03,22,16,33,8.20
2009,03,22,16,34,8.20
2009,03,22,16,35,8.20
2009,03,22,16,36,8.20
2009,03,22,16,37,8.10
2009,03,22,16,38,8.10
2009,03,22,16,39,8.20
2009,03,22,16,40,8.20
2009,03,22,16,41,8.20
2009,03,22,16,42,8.30
2009,03,22,16,43,8.30
2009,03,22,16,44,8.40
2009,03,22,16,45,8.40
2009,03,22,16,46,8.40
2009,03,22,16,47,8.30
2009,03,22,16,48,8.30
2009,03,22,16,49,8.20
2009,03,22,16,50,8.20
2009,03,22,16,51,8.20
2009,03,22,16,52,8.20
2009,03,22,16,53,8.20
2009,03,22,16,54,8.20
2009,03,22,16,55,8.10
2009,03,22,16,56,8.00
2009,03,22,16,57,8.00
2009,03,22,16,58,7.90
2009,03,22,16,59,7.80
2009,03,22,17,00,7.80
2009,03,22,17,01,7.80
2009,03,22,17,02,7.70
2009,03,22,17,03,7.60
2009,03,22,17,04,7.50
2009,03,22,17,05,7.30
2009,03,22,17,06,7.30
2009,03,22,17,07,7.20
2009,03,22,17,08,7.20
2009,03,22,17,09,7.10
2009,03,22,17,10,7.10
2009,03,22,17,11,7.10
2009,03,22,17,12,7.10
2009,03,22,17,13,7.10
2009,03,22,17,14,7.10
2009,03,22,17,15,7.00
2009,03,22,17,16,7.00
2009,03,22,17,17,6.90
2009,03,22,17,18,6.90
2009,03,22,17,19,6.90
2009,03,22,17,20,6.90
2009,03,22,17,21,6.80
2009,03,22,17,22,6.80
2009,03,22,17,23,6.80
2009,03,22,17,24,6.80
2009,03,22,17,25,6.80
2009,03,22,17,26,6.80
2009,03,22,17,27,6.80
2009,03,22,17,28,6.80
2009,03,22,17,29,6.80
2009,03,22,17,30,6.80
2009,03,22,17,31,6.80
2009,03,22,17,32,6.80
2009,03,22,17,33,6.80
2009,03,22,17,34,6.80
2009,03,22,17,35,6.70
2009,03,22,17,36,6.70
2009,03,22,17,37,6.70
2009,03,22,17,38,6.70
2009,03,22,17,39,6.70
2009,03,22,17,40,6.70
2009,03,22,17,41,6.70
2009,03,22,17,42,6.70
2009,03,22,17,43,6.70
2009,03,22,17,44,6.60
2009,03,22,17,45,6.60
2009,03,22,17,46,6.60
2009,03,22,17,47,6.50
2009,03,22,17,48,6.40
2009,03,22,17,49,6.40
2009,03,22,17,50,6.40
2009,03,22,17,51,6.30
2009,03,22,17,52,6.30
2009,03,22,17,53,6.30
2009,03,22,17,54,6.20
2009,03,22,17,55,6.20
2009,03,22,17,56,6.20
2009,03,22,17,57,6.20
2009,03,22,17,58,6.20
2009,03,22,17,59,6.20
2009,03,22,18,00,6.20
2009,03,22,18,01,6.20
2009,03,22,18,02,6.20
2009,03,22,18,03,6.20
2009,03,22,18,04,6.20
2009,03,22,18,05,6.20
2009,03,22,18,06,6.10
2009,03,22,18,07,6.10
2009,03,22,18,08,6.00
2009,03,22,18,09,6.00
2009,03,22,18,10,6.00
2009,03,22,18,11,5.90
2009,03,22,18,12,5.90
2009,03,22,18,13,5.90
2009,03,22,18,14,5.80
2009,03,22,18,15,5.80
2009,03,22,18,16,5.70
2009,03,22,18,17,5.70
2009,03,22,18,18,5.70
2009,03,22,18,19,5.70
2009,03,22,18,20,5.70
2009,03,22,18,21,5.70
2009,03,22,18,22,5.70
2009,03,22,18,23,5.70
2009,03,22,18,24,5.70
2009,03,22,18,25,5.70
2009,03,22,18,26,5.60
2009,03,22,18,27,5.60
2009,03,22,18,28,5.60
2009,03,22,18,29,5.60
2009,03,22,18,30,5.60
2009,03,22,18,31,5.50
2009,03,22,18,32,5.50
2009,03,22,18,33,5.50
2009,03,22,18,34,5.50
2009,03,22,18,35,5.50
2009,03,22,18,36,5.40
2009,03,22,18,37,5.40
2009,03,22,18,38,5.40
2009,03,22,18,39,5.40
2009,03,22,18,40,5.40
2009,03,22,18,41,5.30
2009,03,22,18,42,5.30
2009,03,22,18,43,5.30
2009,03,22,18,44,5.30
2009,03,22,18,45,5.30
2009,03,22,18,46,5.30
2009,03,22,18,47,5.30
2009,03,22,18,48,5.30
2009,03,22,18,49,5.30
2009,03,22,18,50,5.30
2009,03,22,18,51,5.30
2009,03,22,18,52,5.30
2009,03,22,18,53,5.30
2009,03,22,18,54,5.30
2009,03,22,18,55,5.20
2009,03,22,18,56,5.20
2009,03,22,18,57,5.20
2009,03,22,18,58,5.20
2009,03,22,18,59,5.20
2009,03,22,19,00,5.20
2009,03,22,19,01,5.10
2009,03,22,19,02,5.10
2009,03,22,19,03,5.10